Flag for Marshall Islands Weather past 2 weeks in Majuro, Marshall Islands

Now
85 °F

Broken clouds.


Feels Like: 97 °F
Forecast: 82 / 87 °F
Wind: 7 mph from Northeast

Location: Majuro Atoll

Current Time: Aug 5, 2015 at 10:11:28 AM

Latest Report: Aug 5, 2015 at 8:51 AM


Visibility: 15 mi

Pressure: 29.77 "Hg

Humidity: 80%

Dew point: 78 °F

Location of MajuroLocation

Historic Weather in Majuro — Graph

°F

Majuro temperature yesterday

Maximum temperature yesterday: 88 °F (at 11:51 AM)
Minimum temperature yesterday: 81 °F (at 5:55 AM)
Average temperature yesterday: 84 °F

Past Weeks' High & Low Weather Summary

 TemperatureHumidityPressure
High89 °F (Jul 31, 12:50 PM)91% (Jul 23, 7:53 PM)29.92 "Hg (Jul 23, 7:53 PM)
Low77 °F (Jul 21, 1:50 PM)71% (Jul 28, 1:50 PM)29.65 "Hg (Jul 31, 4:50 PM)
Average84 °F82%29.78 "Hg
* Reported Jul 21 8:55 AM — Aug 5 8:51 AM, Majuro, Weather by CustomWeather, © 2015

Note: Actual official high and low records may vary slightly from our data, if they occured in-between our weather recording intervals... More about our weather records

Advertising

Majuro weather history for previous 24 hours

 ConditionsComfort  
Time TempWeatherWind HumidityBarometerVisibility
8:51 AM
Wed, Aug 5
85 °FBroken clouds.7 mph80%29.77 "Hg15 mi
7:50 AM84 °FBroken clouds.5 mph84%29.75 "Hg15 mi
6:51 AM80 °FPartly cloudy.6 mph88%29.75 "Hg15 mi
5:52 AM83 °FPartly cloudy.7 mph81%29.73 "Hg15 mi
4:51 AM83 °FPartly cloudy.5 mph79%29.72 "Hg15 mi
3:53 AM83 °FMostly cloudy.7 mph81%29.72 "Hg15 mi
2:52 AM83 °FMostly cloudy.7 mph81%29.72 "Hg15 mi
1:54 AM83 °FMostly cloudy.7 mph82%29.73 "Hg15 mi
12:51 AM83 °FMostly cloudy.7 mph81%29.75 "Hg15 mi
11:53 PM
Tue, Aug 4
83 °FMostly cloudy.9 mph81%29.77 "Hg15 mi
10:52 PM83 °FMostly cloudy.7 mph83%29.78 "Hg15 mi
9:54 PM83 °FMostly cloudy.8 mph81%29.77 "Hg15 mi
8:55 PM83 °FOvercast.5 mph82%29.75 "Hg15 mi
7:56 PM83 °FOvercast.5 mph82%29.73 "Hg15 mi
6:54 PM83 °FMore clouds than sun.No wind85%29.72 "Hg15 mi
5:52 PM84 °FMore clouds than sun.6 mph81%29.72 "Hg15 mi
4:56 PM83 °FCloudy.No wind83%29.72 "Hg15 mi
3:55 PM85 °FCloudy.5 mph77%29.72 "Hg15 mi
2:52 PM88 °FBroken clouds.8 mph72%29.72 "Hg15 mi
1:53 PM86 °FCloudy.6 mph79%29.72 "Hg15 mi
12:50 PM88 °FMore clouds than sun.6 mph75%29.75 "Hg15 mi
11:51 AM88 °FCloudy.9 mph73%29.77 "Hg15 mi
10:50 AM87 °FMore clouds than sun.5 mph76%29.77 "Hg15 mi
Weather by CustomWeather, © 2015

See weather overviewHow to use our weather pages